SCP
0 0 0 0 0 0 0 0 0 0 0 0 0 0 0 0 0 0 0 0 0 0 0 0 0 0 0 0 0 0 0 0 0 0 0 0 0 0 0 0 0 0 0 0
0 0 0 0 0 0 0 0 0 0 0 0 0 0 0 0 0 0 0 0 0 0 0 0 0 0 0 0 0 0 0 0 0 0 0 0 0 0 0 0 0 0 0 0
0 0 0 0 0 0 0 0 0 0 0 0 0 0 0 0 0 0 0 0 0 0 0 0 0 0 0 0 0 0 0 0 0 0 0 0 0 0 0 0 0 0 0 0
0 0 0 0 0 0 0 0 0 0 0 0 0 0 0 0 0 0 0 0 0 0 0 0 0 0 0 0 0 0 0 0 0 0 0 0 0 0 0 0 0 0 0 0
0 0 0 0 0 0 0 0 0 0 0 0 0 0 0 0 0 0 0 0 0 0 0 0 0 0 0 0 0 0 0 0 0 0 0 0 0 0 0 0 0 0 0 0
0 0 0 0 0 0 0 0 0 0 0 0 0 0 0 0 0 0 0 0 0 0 0 0 0 0 0 0 0 0 0 0 0 0 0 0 0 0 0 0 0 0 0 0
0 0 0 0 0 0 0 0 0 0 0 0 0 0 0 0 0 0 0 0 0 0 0 0 0 0 0 0 0 0 0 0 0 0 0 0 0 0 0 0 0 0 0 0
0 0 0 0 0 0 0 0 0 0 0 0 0 0 0 0 0 0 0 0 0 0 0 0 0 0 0 0 0 0 0 0 0 0 0 0 0 0 0 0 0 0 0 0
0 0 0 0 0 0 0 0 0 0 0 0 0 0 0 0 0 0 0 0 0 0 0 0 0 0 0 0 0 0 0 0 0 0 0 0 0 0 0 0 0 0 0 0
0 0 0 0 0 0 0 0 0 0 0 0 0 0 0 0 0 0 0 0 0 0 0 0 0 0 0 0 0 0 0 0 0 0 0 0 0 0 0 0 0 0 0 0
0 0 0 0 0 0 0 0 0 0 0 0 0 0 0 0 0 0 0 0 0 0 0 0 0 0 0 0 0 0 0 0 0 0 0 0 0 0 0 0 0 0 0 0
0 0 0 0 0 0 0 0 0 0 0 0 0 0 0 0 0 0 0 0 0 0 0 0 0 0 0 0 0 0 0 0 0 0 0 0 0 0 0 0 0 0 0 0
0 0 0 0 0 0 0 0 0 0 0 0 0 0 0 0 0 0 0 0 0 0 0 0 0 0 0 0 0 0 0 0 0 0 0 0 0 0 0 0 0 0 0 0
0 0 0 0 0 0 0 0 0 0 0 0 0 0 0 0 0 0 0 0 0 0 0 0 0 0 0 0 0 0 0 0 0 0 0 0 0 0 0 0 0 0 0 0
0 0 0 0 0 0 0 0 0 0 0 0 0 0 0 0 0 0 0 0 0 0 0 0 0 0 0 0 0 0 0 0 0 0 0 0 0 0 0 0 0 0 0 0
0 0 0 0 0 0 0 0 0 0 0 0 0 0 0 0 0 0 0 0 0 0 0 0 0 0 0 0 0 0 0 0 0 0 0 0 0 0 0 0 0 0 0 0
0 0 0 0 0 0 0 0 0 0 0 0 0 0 0 0 0 0 0 0 0 0 0 0 0 0 0 0 0 0 0 0 0 0 0 0 0 0 0 0 0 0 0 0
0 0 0 0 0 0 0 0 0 0 0 0 0 0 0 0 0 0 0 0 0 0 0 0 0 0 0 0 0 0 0 0 0 0 0 0 0 0 0 0 0 0 0 0
0 0 0 0 0 0 0 0 0 0 0 0 0 0 0 0 0 0 0 0 0 0 0 0 0 0 0 0 0 0 0 0 0 0 0 0 0 0 0 0 0 0 0 0
0 0 0 0 0 0 0 0 0 0 0 0 0 0 0 0 0 0 0 0 0 0 0 0 0 0 0 0 0 0 0 0 0 0 0 0 0 0 0 0 0 0 0 0
0 0 0 0 0 0 0 0 0 0 0 0 0 0 0 0 0 0 0 0 0 0 0 0 0 0 0 0 0 0 0 0 0 0 0 0 0 0 0 0 0 0 0 0
0 0 0 0 0 0 0 0 0 0 0 0 0 0 0 0 0 0 0 0 0 0 0 0 0 0 0 0 0 0 0 0 0 0 0 0 0 0 0 0 0 0 0 0
0 0 0 0 0 0 0 0 0 0 0 0 0 0 0 0 0 0 0 0 0 0 0 0 0 0 0 0 0 0 0 0 0 0 0 0 0 0 0 0 0 0 0 0
0 0 0 0 0 0 0 0 0 0 0 0 0 0 0 0 0 0 0 0 0 0 0 0 0 0 0 0 0 0 0 0 0 0 0 0 0 0 0 0 0 0 0 0
0 0 0 0 0 0 0 0 0 0 0 0 0 0 0 0 0 0 0 0 0 0 0 0 0 0 0 0 0 0 0 0 0 0 0 0 0 0 0 0 0 0 0 0
0 0 0 0 0 0 0 0 0 0 0 0 0 0 0 0 0 0 0 0 0 0 0 0 0 0 0 0 0 0 0 0 0 0 0 0 0 0 0 0 0 0 0 0
0 0 0 0 0 0 0 0 0 0 0 0 0 0 0 0 0 0 0 0 0 0 0 0 0 0 0 0 0 0 0 0 0 0 0 0 0 0 0 0 0 0 0 0
Wind_Speed
3 2 2 2 4 3 3 2 1 4 5 5 8 9 10 9 8 10 13 14 14 14 13 14 15 14 15 15 14 14 14 13 13 12 12 12 13 13 13 12 12 12 12 13
3 4 3 5 7 5 5 3 2 3 4 5 8 7 9 6 8 12 13 13 14 14 14 14 14 14 14 14 14 14 13 13 13 12 12 11 12 12 12 11 11 10 10 11
4 5 4 3 3 3 2 1 0 2 6 9 9 11 11 6 9 11 12 12 12 12 12 12 11 12 13 13 13 13 13 13 13 12 12 11 12 12 12 11 10 9 8 8
1 5 2 3 3 1 2 2 2 4 7 8 8 11 4 3 7 9 10 10 9 10 10 9 9 10 11 10 11 11 12 13 13 13 12 11 11 12 11 9 9 8 7 7
2 2 5 2 3 3 3 4 2 4 8 8 9 7 1 4 6 7 7 7 6 7 8 8 9 10 10 9 10 11 12 13 13 13 13 11 12 12 9 8 8 9 9 8
3 1 5 4 5 3 0 4 4 4 6 7 9 9 4 7 8 6 6 6 7 7 7 9 9 9 9 9 10 12 13 13 12 12 12 10 11 10 9 7 8 9 10 9
3 4 7 5 4 2 2 6 6 4 4 4 4 6 9 9 7 6 6 7 7 7 7 8 9 9 8 8 10 12 13 12 12 12 11 10 9 8 9 9 8 8 8 8
4 3 8 4 1 2 5 5 3 3 3 5 7 8 8 7 7 7 7 8 7 7 8 8 8 8 8 9 10 11 12 12 12 10 10 11 10 9 9 8 8 7 6 6
8 7 5 2 2 3 3 3 2 3 3 4 5 5 6 6 5 6 6 7 6 7 8 7 7 7 8 9 11 12 12 11 10 10 9 10 9 8 8 7 8 7 5 5
2 4 3 3 2 1 1 2 2 2 2 2 3 4 4 5 6 6 6 6 6 7 8 7 7 8 7 9 10 10 11 11 9 7 8 9 8 8 8 7 8 8 8 8
3 3 1 1 1 2 1 1 0 1 2 1 2 3 4 4 5 5 6 6 6 6 7 7 8 8 10 10 9 9 9 10 9 8 7 6 8 7 10 7 11 10 7 7
6 5 3 3 3 2 2 1 0 1 2 3 3 3 4 4 4 5 6 5 6 7 8 8 8 9 9 9 9 8 10 9 8 7 6 6 5 6 12 14 17 18 17 14
5 4 4 2 2 2 1 2 1 2 2 3 4 3 4 3 4 5 6 6 7 8 8 8 9 10 10 10 11 9 9 10 8 8 7 7 7 7 7 9 14 15 16 17
3 3 2 2 2 1 2 3 4 5 5 4 3 3 3 4 5 5 6 7 7 8 8 8 9 10 11 11 12 10 10 12 12 8 7 6 6 7 7 7 7 6 10 15
4 4 2 0 1 2 2 3 4 4 3 3 4 4 4 5 5 6 6 8 9 8 8 9 11 12 11 12 13 12 11 9 9 8 8 7 7 7 7 8 7 6 6 8
3 3 3 2 1 1 2 2 3 3 2 3 4 4 4 4 5 6 6 7 8 10 10 10 11 12 13 13 13 12 11 19 18 12 9 9 9 9 8 8 7 7 6 6
3 0 1 1 0 2 3 4 4 3 2 2 3 4 4 5 6 7 8 9 8 9 10 10 12 14 14 13 12 11 11 14 21 15 10 10 9 9 8 8 8 8 7 9
5 3 2 2 2 4 5 5 4 3 2 2 2 4 5 6 7 8 9 10 10 10 9 9 12 14 11 12 12 11 11 12 11 11 11 10 10 9 8 8 8 10 7 9
5 4 4 5 5 6 5 4 4 3 2 2 3 3 4 5 6 8 9 9 9 11 11 12 22 14 13 18 19 10 11 12 12 11 11 15 13 9 9 9 9 8 8 7
5 5 6 6 5 5 5 4 4 3 2 2 2 4 5 6 7 8 9 7 6 7 12 16 14 11 14 15 19 10 11 12 13 12 12 11 11 11 10 9 9 8 7 7
5 7 7 7 6 5 5 5 5 3 2 2 2 3 5 7 7 7 7 9 9 11 14 19 13 12 13 16 17 11 11 12 13 12 13 12 12 11 10 9 8 7 6 6
6 7 8 8 7 5 4 4 4 3 2 1 2 4 5 7 8 8 6 6 9 19 14 9 10 17 22 19 11 11 12 13 13 12 12 13 13 12 11 9 7 5 4 3
6 7 9 8 7 6 4 3 3 2 1 1 3 5 5 6 6 6 9 8 9 19 13 9 19 26 26 13 11 12 13 14 13 13 13 13 13 12 11 10 6 3 1 1
7 8 8 7 7 6 5 3 2 1 1 3 4 5 5 5 5 4 6 14 19 20 11 16 25 26 22 11 11 12 12 12 12 12 12 12 11 11 11 10 8 6 5 4
8 7 7 8 7 5 5 4 2 1 2 2 4 4 4 3 4 8 8 10 17 17 11 16 24 24 15 11 12 12 12 13 14 12 10 10 10 10 10 10 9 7 6 5
7 7 6 5 5 5 4 4 2 2 1 1 2 3 4 4 5 6 7 8 11 15 11 9 11 14 11 11 12 13 12 13 12 10 9 9 8 8 8 9 9 7 6 5
7 6 5 4 4 4 4 4 3 2 1 1 2 3 5 5 6 7 8 8 9 9 9 9 9 10 10 11 12 13 12 12 11 9 7 6 6 6 6 7 5 5 4 4
Wind_Direction
271 341 348 358 347 25 86 102 165 290 294 311 320 308 308 319 337 347 349 353 355 353 352 353 353 349 346 344 343 341 340 339 336 335 336 339 340 343 345 348 351 354 356 357
318 14 37 51 21 42 60 54 346 325 298 287 291 292 315 338 350 348 349 350 350 352 351 353 350 345 343 341 339 338 338 336 334 335 337 340 342 344 344 344 345 349 353 356
293 331 53 21 356 28 16 20 333 285 273 292 307 319 321 345 352 348 346 347 351 351 349 348 343 339 336 334 335 338 337 337 337 338 339 339 342 344 341 337 338 337 340 349
323 23 4 241 239 240 268 203 210 260 276 284 287 295 300 30 352 345 347 350 352 349 343 338 332 332 330 330 335 337 339 339 340 340 339 339 343 342 338 334 334 331 328 330
89 342 285 266 272 269 269 254 223 286 296 306 313 304 169 37 8 352 356 357 353 347 334 327 328 329 330 332 337 340 342 341 340 341 339 341 344 341 336 336 340 340 341 337
112 261 263 241 257 282 135 276 263 293 308 319 335 336 326 6 4 5 11 2 354 342 330 330 328 330 331 333 340 342 340 337 337 339 338 339 341 338 336 335 343 348 354 360
163 227 265 252 271 55 85 273 294 310 318 321 313 289 314 346 356 12 11 357 348 336 328 324 325 330 332 333 338 336 336 335 336 338 335 340 336 334 337 339 341 344 349 356
160 206 261 254 123 147 234 253 271 274 278 282 284 300 325 340 350 6 0 350 342 333 328 323 324 330 334 334 332 334 334 335 333 336 341 346 335 334 336 338 338 330 334 344
185 209 227 227 170 199 224 260 261 249 263 277 292 312 329 338 352 359 349 337 329 324 321 320 323 330 331 329 332 336 335 333 330 339 340 340 337 335 336 340 338 333 334 338
219 251 211 175 184 218 237 255 252 247 280 294 304 318 333 343 351 347 334 329 323 325 323 321 324 330 325 324 331 333 332 330 329 337 339 336 339 343 340 340 340 352 355 345
234 270 173 238 322 316 296 279 277 330 332 348 340 345 352 348 342 332 331 323 324 319 316 320 323 325 326 329 328 328 329 328 329 335 327 328 336 338 340 333 344 354 348 342
214 217 188 255 305 333 326 333 117 327 350 38 37 14 0 343 328 320 320 316 318 320 328 325 322 321 320 322 324 323 332 331 326 326 326 327 319 326 336 340 344 348 347 346
180 185 186 231 12 25 92 121 108 66 57 57 46 27 3 333 319 324 325 324 323 326 327 321 321 320 320 322 321 317 319 321 316 321 319 320 322 322 320 325 334 341 343 343
140 124 96 14 360 57 104 106 93 82 74 69 45 19 355 336 327 334 330 321 322 322 321 318 318 317 316 315 315 314 309 310 311 299 296 298 301 303 304 308 312 315 328 334
106 108 129 107 97 105 101 102 92 80 68 48 24 7 350 343 334 327 321 328 328 322 319 318 318 316 314 312 314 313 308 300 296 290 287 289 294 295 293 294 294 297 299 313
123 91 83 77 62 113 103 96 97 85 61 32 9 351 338 328 320 321 325 330 328 319 314 313 312 313 315 313 313 310 302 303 306 301 296 298 296 292 289 286 286 285 284 285
128 88 343 335 15 112 99 95 103 104 79 33 357 343 340 335 334 334 329 323 311 301 301 304 309 311 307 307 306 302 299 299 304 306 300 297 293 286 281 276 274 276 274 278
143 156 171 189 160 131 116 106 107 102 78 33 20 9 355 346 334 321 316 316 317 313 306 306 307 306 306 310 305 299 300 303 307 310 310 307 302 294 287 281 278 278 275 279
123 124 116 106 110 120 125 128 125 113 78 53 35 3 333 320 312 309 312 319 321 322 316 311 316 325 314 314 316 312 318 321 321 318 314 313 314 304 295 287 280 274 271 269
124 120 116 107 104 116 128 135 131 112 83 57 25 355 340 326 318 318 318 310 293 291 300 311 323 322 315 314 329 335 331 326 322 320 318 314 310 305 299 291 283 275 267 262
146 138 133 128 120 119 123 130 128 119 93 55 28 345 321 312 314 318 322 321 317 316 319 331 334 320 320 338 345 337 331 328 326 324 321 319 315 311 304 295 285 276 265 256
153 147 145 141 132 121 113 117 125 128 108 30 351 329 324 323 324 321 302 284 306 324 332 328 324 330 344 351 341 335 333 332 330 327 328 330 331 329 324 316 300 284 272 255
149 148 149 148 143 135 122 119 132 141 140 330 325 321 317 309 310 318 324 320 320 329 337 326 335 344 353 351 339 336 335 334 333 335 339 342 344 345 345 345 348 355 15 4
138 139 136 130 128 133 148 170 179 197 258 292 294 295 299 312 313 289 294 319 331 336 339 336 346 351 355 347 338 337 337 335 336 341 345 348 355 360 4 8 17 27 34 33
132 130 135 143 152 163 167 170 182 242 269 287 295 300 299 292 293 307 315 319 330 342 340 340 348 351 351 339 340 339 338 338 344 347 347 352 360 3 7 13 21 27 28 26
141 149 155 162 159 154 156 164 178 197 223 314 316 316 316 311 304 309 318 324 331 343 343 338 339 343 343 341 341 340 339 338 339 342 345 353 358 3 8 12 16 19 16 14
129 133 138 140 151 160 165 170 168 174 190 281 311 317 322 325 329 332 332 336 339 341 340 341 341 341 341 342 342 342 340 340 339 340 344 348 353 355 358 1 2 359 358 1